Location: Unspecified
(0.0000°N, 0.0000°E)
Time: 06:30:21
(UTC+00:00)

Envisat - Pass Details

Date: 16 June 2019
Orbit: 764 x 766 km, 98.1° (Epoch: 15 September)

Event Time Altitude Azimuth Distance (km) Brightness Sun altitude
Rises 18:33:28 0° 160° (SSE) 3,227 5.8 -7.5°
Reaches altitude 10° 18:35:48 10° 156° (SSE) 2,299 5.0 -8.0°
Maximum altitude 18:40:46 57° 78° (ENE) 899 3.1 -9.2°
Drops below altitude 10° 18:45:42 10° 0° (N) 2,289 5.8 -10.3°
Sets 18:48:02 0° 356° (N) 3,213 6.6 -10.8°
